Hourly Data Report for October 01, 2016

All times are specified in Local Standard Time (LST). Add 1 hour to adjust for Daylight Saving Time where and when it is observed.

RESOLUTE BAY A
NUNAVUT

74°43'01.000" N
94°58'10.000" W
67.70 m
2403498
71924
YRB

Download Data

Hourly Data (October 2016)
Hourly Data Report for October 1, 2016
Temp Definition
°C
Dew Point Temp Definition
°C
Rel Hum Definition
%
Wind Dir Definition
10's deg

Wind Spd Definition
km/h
Visibility Definition
km
Stn Press Definition
kPa
Hmdx Definition


Wind Chill Definition


Weather Definition


TIME
00:00 Legend Double Dagger -9.0 -11.4 83 1 46 24.1 101.60   -20 Clear
01:00 Legend Double Dagger -7.9 -10.6 81 36 44 24.1 101.59   -18 LegendNANA
02:00 Legend Double Dagger -8.0 -10.1 85 36 45 24.1 101.64   -19 LegendNANA
03:00 Legend Double Dagger -7.9 -10.2 84 35 40 24.1 101.65   -18 Clear
04:00 Legend Double Dagger -8.2 -10.3 85 34 49 24.1 101.67   -19 LegendNANA
05:00 Legend Double Dagger -8.6 -10.8 84 34 39 24.1 101.73   -19 LegendNANA
06:00 Legend Double Dagger -8.0 -9.9 86 35 41 24.1 101.68   -18 Cloudy
07:00 Legend Double Dagger -7.6 -10.0 83 35 42 24.1 101.68   -18 LegendNANA
08:00 Legend Double Dagger -7.1 -9.2 85 34 38 24.1 101.69   -17 LegendNANA
09:00 Legend Double Dagger -6.7 -8.8 85 32 24 24.1 101.69   -14 Cloudy
10:00 Legend Double Dagger -6.2 -8.0 87 33 31 24.1 101.67   -15 LegendNANA
11:00 Legend Double Dagger -5.8 -7.3 89 33 36 24.1 101.64   -15 Snow
12:00 Legend Double Dagger -6.0 -7.5 89 33 25 24.1 101.64   -14 Cloudy
13:00 Legend Double Dagger -4.9 -6.0 92 31 38 24.1 101.62   -14 Freezing Drizzle
14:00 Legend Double Dagger -4.6 -5.7 92 31 32 24.1 101.62   -13 LegendNANA
15:00 Legend Double Dagger -4.3 -5.6 91 32 33 24.1 101.60   -12 Cloudy
16:00 Legend Double Dagger -4.5 -5.9 90 31 31 24.1 101.57   -12 LegendNANA
17:00 Legend Double Dagger -4.8 -6.3 89 32 40 24.1 101.52   -14 LegendNANA
18:00 Legend Double Dagger -5.0 -6.4 90 31 36 24.1 101.48   -14 Cloudy
19:00 Legend Double Dagger -4.7 -6.2 89 31 37 24.1 101.40   -13 LegendNANA
20:00 Legend Double Dagger -4.5 -6.2 88 31 35 24.1 101.36   -13 LegendNANA
21:00 Legend Double Dagger -4.6 -6.1 89 31 30 24.1 101.29   -12 Cloudy
22:00 Legend Double Dagger -4.9 -7.2 84 28 28 24.1 101.22   -13 LegendNANA
23:00 Legend Double Dagger -5.1 -7.6 83 29 37 24.1 101.12   -14 LegendNANA

Notes on Data Quality.

Legend

  • E = Estimated
  • M = Missing
  • NA = Not Available
  • ‡ = Partner data that is not subject to review by the National Climate Archives
Date modified: